Location: Bilsen
(53.7722°N, 9.8765°E)
Time: 20:38:07
(UTC+00:00)

Cosmos 1340 - Pass Details

Date: 18 February 2020
Orbit: 501 x 506 km, 81.2° (Epoch: 03 April)

Event Time Altitude Azimuth Distance (km) Brightness Sun altitude
Rises 05:22:46 0° 348° (NNW) 2,616 6.1 -11.2°
Reaches altitude 10° 05:24:55 10° 351° (N) 1,726 5.2 -10.9°
Maximum altitude 05:28:41 66° 74° (ENE) 554 3.1 -10.4°
Drops below altitude 10° 05:32:25 10° 158° (SSE) 1,710 5.7 -9.8°
Sets 05:34:33 0° 161° (SSE) 2,589 6.6 -9.5°
